User: anonymous   Login
Location: Regona
(45.2000°N, 9.8167°E)
Time: 03:22:03
(UTC+00:00)
Language:

STARLINK-45 - Orbit

View from above orbital plane
View from above orbital plane
View from above satellite
View from above satellite

Ground track
Ground track

The orbit data is extracted from the following two-line orbital elements,

1 44260U 19029AB  20221.91667824 +.00922976 +00000-0 +33200-2 0  9992
2 44260 053.0070 312.7179 0001358 053.4321 225.5745 15.85881462001782
Epoch (UTC): 08 August 2020 22:00:01
Eccentricity: 0.0001358
inclination: 53.0070°
perigee height: 313 km
apogee height: 315 km
right ascension of ascending node: 312.7179°
argument of perigee: 53.4321°
revolutions per day: 15.85881462
mean anomaly at epoch: 225.5745°
orbit number at epoch: 178

The dashed part of the orbit path shows where the satellite is in the earth's shadow,  

DLR